When you browse on this site, cookies collect data to enhance your experience and personalize the content and advertising you see.
Visit our Privacy Policy to learn more. By continuing to use the site, you agree to this use of cookies and data.
  • Em Portugal
  • Lista de países
  • Para 7 dias
  • Temperatura da água
  • Mapas de satélite
  • Mapa do tempo
  • Widgets de tempo
  • user-avatar
    Iniciar Sessão

    Previsão horária em Gradek

    Hoje, 18 Junho, Terça-feira

    Tempo Temperatura Precipitação Vento Pressão Humidade
    00:00 +13°C° 0 mm 2 m/s 755 mmHg 83%
    01:00 +13°C° 0 mm 2 m/s 756 mmHg 83%
    02:00 +13°C° 0 mm 2 m/s 756 mmHg 84%
    03:00 +13°C° 0 mm 1 m/s 756 mmHg 85%
    04:00 +12°C° 0 mm 1 m/s 756 mmHg 85%
    05:00 +14°C° 0 mm 1 m/s 756 mmHg 81%
    06:00 +16°C° 0 mm 1 m/s 756 mmHg 76%
    07:00 +18°C° 0 mm 2 m/s 756 mmHg 72%
    08:00 +19°C° 0 mm 2 m/s 756 mmHg 68%
    09:00 +20°C° 0 mm 2 m/s 756 mmHg 64%
    10:00 +23°C° 0 mm 2 m/s 756 mmHg 59%
    11:00 +23°C° 0 mm 2 m/s 755 mmHg 57%
    12:00 +24°C° 0 mm 2 m/s 755 mmHg 56%
    13:00 +25°C° 0 mm 2 m/s 755 mmHg 54%
    14:00 +25°C° 0 mm 2 m/s 754 mmHg 55%
    15:00 +25°C° 0 mm 2 m/s 754 mmHg 57%
    16:00 +25°C° 0 mm 3 m/s 754 mmHg 59%
    17:00 +24°C° 0 mm 3 m/s 753 mmHg 64%
    18:00 +21°C° 0 mm 2 m/s 753 mmHg 70%
    19:00 +20°C° 0 mm 2 m/s 753 mmHg 75%
    20:00 +19°C° 0 mm 2 m/s 753 mmHg 77%
    21:00 +18°C° 0 mm 2 m/s 753 mmHg 79%
    22:00 +17°C° 0 mm 3 m/s 753 mmHg 80%
    23:00 +17°C° 0 mm 3 m/s 753 mmHg 81%

    Amanhã, 19 Junho, Quarta-feira

    Tempo Temperatura Precipitação Vento Pressão Humidade
    00:00 +16°C° 0 mm 3 m/s 753 mmHg 82%
    01:00 +16°C° 0 mm 3 m/s 752 mmHg 82%
    02:00 +16°C° 0 mm 3 m/s 752 mmHg 85%
    03:00 +16°C° 0 mm 3 m/s 752 mmHg 87%
    04:00 +14°C° 0 mm 3 m/s 752 mmHg 90%
    05:00 +17°C° 0 mm 3 m/s 752 mmHg 87%
    06:00 +19°C° 0 mm 4 m/s 752 mmHg 84%
    07:00 +21°C° 0 mm 4 m/s 751 mmHg 82%
    08:00 +22°C° 0.4 mm 5 m/s 751 mmHg 79%
    09:00 +23°C° 0.4 mm 5 m/s 751 mmHg 77%
    10:00 +25°C° 0.4 mm 5 m/s 751 mmHg 74%
    11:00 +26°C° 0.1 mm 5 m/s 750 mmHg 71%
    12:00 +26°C° 0.1 mm 5 m/s 750 mmHg 68%
    13:00 +27°C° 0.1 mm 5 m/s 749 mmHg 64%
    14:00 +27°C° 0.5 mm 5 m/s 749 mmHg 67%
    15:00 +27°C° 0.5 mm 4 m/s 749 mmHg 70%
    16:00 +27°C° 0.5 mm 4 m/s 748 mmHg 73%
    17:00 +26°C° 0.6 mm 3 m/s 748 mmHg 77%
    18:00 +25°C° 0.6 mm 3 m/s 748 mmHg 81%
    19:00 +24°C° 0.6 mm 3 m/s 748 mmHg 86%
    20:00 +23°C° 0 mm 2 m/s 748 mmHg 88%
    21:00 +21°C° 0 mm 2 m/s 748 mmHg 90%
    22:00 +20°C° 0 mm 2 m/s 748 mmHg 92%
    23:00 +20°C° 0 mm 2 m/s 747 mmHg 92%

    Depois de amanhã, 20 Junho, Quinta-feira

    Tempo Temperatura Precipitação Vento Pressão Humidade
    00:00 +20°C° 0 mm 1 m/s 747 mmHg 92%
    01:00 +20°C° 0 mm 1 m/s 747 mmHg 92%
    02:00 +20°C° 0 mm 1 m/s 747 mmHg 92%
    03:00 +20°C° 0 mm 1 m/s 747 mmHg 92%
    04:00 +20°C° 0 mm 1 m/s 747 mmHg 92%
    05:00 +21°C° 0 mm 1 m/s 747 mmHg 87%
    06:00 +23°C° 0 mm 1 m/s 747 mmHg 83%
    07:00 +24°C° 0 mm 1 m/s 747 mmHg 79%
    08:00 +25°C° 0 mm 1 m/s 747 mmHg 73%
    09:00 +27°C° 0 mm 1 m/s 747 mmHg 67%
    10:00 +28°C° 0 mm 2 m/s 748 mmHg 62%
    11:00 +29°C° 0 mm 2 m/s 747 mmHg 58%
    12:00 +29°C° 0 mm 2 m/s 747 mmHg 54%
    13:00 +30°C° 0 mm 1 m/s 747 mmHg 51%
    14:00 +30°C° 0 mm 1 m/s 747 mmHg 51%
    15:00 +30°C° 0 mm 1 m/s 747 mmHg 52%
    16:00 +30°C° 0 mm 1 m/s 747 mmHg 52%
    17:00 +29°C° 0 mm 1 m/s 747 mmHg 57%
    18:00 +28°C° 0 mm 1 m/s 747 mmHg 62%
    19:00 +24°C° 0 mm 0 m/s 747 mmHg 68%
    20:00 +25°C° 0 mm 1 m/s 747 mmHg 70%
    21:00 +24°C° 0 mm 1 m/s 747 mmHg 72%
    22:00 +23°C° 0 mm 1 m/s 748 mmHg 75%
    23:00 +22°C° 0 mm 1 m/s 748 mmHg 76%

    21 Junho, Sexta-feira

    Tempo Temperatura Precipitação Vento Pressão Humidade
    00:00 +22°C° 0 mm 1 m/s 748 mmHg 78%
    01:00 +21°C° 0 mm 1 m/s 748 mmHg 80%
    02:00 +21°C° 0 mm 1 m/s 748 mmHg 81%
    03:00 +21°C° 0 mm 1 m/s 748 mmHg 82%
    04:00 +18°C° 0 mm 0 m/s 748 mmHg 83%
    05:00 +20°C° 0 mm 0 m/s 748 mmHg 80%
    06:00 +22°C° 0 mm 0 m/s 748 mmHg 76%
    07:00 +25°C° 0 mm 1 m/s 748 mmHg 72%
    08:00 +27°C° 0.6 mm 1 m/s 748 mmHg 68%
    09:00 +28°C° 0.6 mm 1 m/s 748 mmHg 64%
    10:00 +29°C° 0.6 mm 2 m/s 748 mmHg 60%
    11:00 +29°C° 1 mm 1 m/s 748 mmHg 60%
    12:00 +29°C° 1 mm 1 m/s 748 mmHg 59%
    13:00 +29°C° 1 mm 1 m/s 748 mmHg 59%
    14:00 +28°C° 1 mm 2 m/s 748 mmHg 66%
    15:00 +27°C° 1 mm 4 m/s 748 mmHg 73%
    16:00 +24°C° 1 mm 6 m/s 748 mmHg 80%
    17:00 +23°C° 2.8 mm 5 m/s 748 mmHg 85%
    18:00 +22°C° 2.8 mm 4 m/s 748 mmHg 89%
    19:00 +20°C° 2.8 mm 4 m/s 748 mmHg 94%
    20:00 +19°C° 1.8 mm 4 m/s 749 mmHg 94%
    21:00 +19°C° 1.8 mm 4 m/s 749 mmHg 94%
    22:00 +17°C° 1.8 mm 5 m/s 749 mmHg 94%
    23:00 +16°C° 0.1 mm 5 m/s 750 mmHg 94%

    22 Junho, Sábado

    Tempo Temperatura Precipitação Vento Pressão Humidade
    00:00 +17°C° 0.1 mm 4 m/s 750 mmHg 94%
    01:00 +17°C° 0.1 mm 4 m/s 750 mmHg 94%
    02:00 +15°C° 0 mm 4 m/s 750 mmHg 94%
    03:00 +15°C° 0 mm 4 m/s 751 mmHg 95%
    04:00 +15°C° 0 mm 4 m/s 751 mmHg 95%
    05:00 +15°C° 0 mm 4 m/s 752 mmHg 93%
    06:00 +17°C° 0 mm 4 m/s 752 mmHg 91%
    07:00 +17°C° 0 mm 4 m/s 752 mmHg 89%
    08:00 +18°C° 0 mm 4 m/s 753 mmHg 84%
    09:00 +20°C° 0 mm 4 m/s 753 mmHg 78%
    10:00 +21°C° 0 mm 4 m/s 753 mmHg 73%
    11:00 +22°C° 0 mm 4 m/s 753 mmHg 70%
    12:00 +22°C° 0 mm 5 m/s 753 mmHg 67%
    13:00 +23°C° 0 mm 5 m/s 754 mmHg 64%
    14:00 +22°C° 0 mm 5 m/s 754 mmHg 65%
    15:00 +22°C° 0 mm 5 m/s 754 mmHg 65%
    16:00 +22°C° 0 mm 5 m/s 754 mmHg 65%
    17:00 +21°C° 0 mm 4 m/s 754 mmHg 70%
    18:00 +19°C° 0 mm 4 m/s 754 mmHg 74%
    19:00 +18°C° 0 mm 3 m/s 754 mmHg 78%
    20:00 +17°C° 0 mm 3 m/s 754 mmHg 81%
    21:00 +14°C° 0 mm 3 m/s 755 mmHg 83%
    22:00 +13°C° 0 mm 3 m/s 755 mmHg 85%
    23:00 +13°C° 0 mm 3 m/s 755 mmHg 88%

    23 Junho, Domingo

    Tempo Temperatura Precipitação Vento Pressão Humidade
    00:00 +12°C° 0 mm 3 m/s 755 mmHg 90%
    01:00 +12°C° 0 mm 3 m/s 755 mmHg 92%
    02:00 +12°C° 0 mm 3 m/s 755 mmHg 90%
    03:00 +12°C° 0 mm 3 m/s 755 mmHg 89%
    04:00 +12°C° 0 mm 3 m/s 755 mmHg 88%
    05:00 +13°C° 0 mm 3 m/s 755 mmHg 83%
    06:00 +14°C° 0 mm 3 m/s 755 mmHg 79%
    07:00 +16°C° 0 mm 3 m/s 755 mmHg 75%
    08:00 +17°C° 0 mm 3 m/s 755 mmHg 68%
    09:00 +19°C° 0 mm 2 m/s 755 mmHg 61%
    10:00 +20°C° 0 mm 2 m/s 755 mmHg 53%
    11:00 +21°C° 0 mm 2 m/s 755 mmHg 51%
    12:00 +23°C° 0 mm 2 m/s 755 mmHg 49%
    13:00 +23°C° 0 mm 2 m/s 755 mmHg 46%
    14:00 +22°C° 0 mm 3 m/s 754 mmHg 49%
    15:00 +22°C° 0 mm 3 m/s 754 mmHg 51%
    16:00 +22°C° 0 mm 3 m/s 754 mmHg 54%
    17:00 +21°C° 0 mm 3 m/s 754 mmHg 61%
    18:00 +20°C° 0 mm 3 m/s 754 mmHg 68%
    19:00 +18°C° 0 mm 3 m/s 754 mmHg 76%
    20:00 +17°C° 0 mm 3 m/s 754 mmHg 79%
    21:00 +16°C° 0 mm 3 m/s 754 mmHg 82%
    22:00 +13°C° 0 mm 3 m/s 754 mmHg 85%
    23:00 +13°C° 0 mm 3 m/s 754 mmHg 87%
    Mostrar mais